User: anonymous   Login
Location: CNYAC Observatory
(43.2150°N, 74.9500°W)
Time: 10:02:31
(UTC-05:00)
Language:

Meteor 1-22 Rocket - Orbit

View from above orbital plane
View from above orbital plane
View from above satellite
View from above satellite

Ground track
Ground track

The orbit data is extracted from the following two-line orbital elements,

1 08294U 75087B   14330.20302507  .00000095  00000-0  45233-4 0  1278
2 08294 081.2187 212.9044 0107247 156.3230 317.9098 14.08512030 13370
Epoch (UTC): 26 November 2014 04:52:21
Eccentricity: 0.0107247
inclination: 81.2187°
perigee height: 787 km
apogee height: 942 km
right ascension of ascending node: 212.9044°
argument of perigee: 156.3230°
revolutions per day: 14.08512030
mean anomaly at epoch: 317.9098°
orbit number at epoch: 1337

The dashed part of the orbit path shows where the satellite is in the earth's shadow,  

DLR